Regional Weather Roundup
Issued by NWS

Home | Current Version | Previous Version | Graphics & Text | Print | Product List | Glossary On
Versions: 1 2 3 4 5 6 7 8 9 10 11 12 13 14 15 16 17 18 19 20 21 22 23 24 25 26 27 28 29 30 31 32 33 34 35 36 37 38 39 40 41 42 43 44 45 46 47 48 49 50
000
ASUS43 KLSX 262310
RWRMO

WEATHER SUMMARY FOR MISSOURI
NATIONAL WEATHER SERVICE SPRINGFIELD MO
600 PM CDT MON SEP 26 2016

NOTE: "FAIR" INDICATES FEW OR NO CLOUDS BELOW 12,000 FEET WITH NO
       SIGNIFICANT WEATHER AND/OR OBSTRUCTIONS TO VISIBILITY.
       CURRENT SKY AND/OR WEATHER CONDITIONS ARE NOT AVAILABLE FOR
       CHILLICOTHE AND FARMINGTON.

MOZ001>031-035>038-043-044-053-054-270000-
...NORTHERN AND WESTERN MISSOURI...

CITY           SKY/WX    TMP DP  RH WIND       PRES   REMARKS
KANSAS CTY INT SUNNY     71  44  37 W6        30.13F
KANSAS C DTWN  SUNNY     73  42  32 W5        30.13F
LEE`S SUMMIT   SUNNY     71  42  35 W5        30.15F
ST JOSEPH      SUNNY     74  43  32 W6        30.11F
CHILLICOTHE      N/A     73  42  32 W3        30.12F
KIRKSVILLE     SUNNY     69  41  36 W10       30.10F

$$
MOZ066>068-077>081-088>096-101>105-270000-
...SOUTHWEST MISSOURI...

CITY           SKY/WX    TMP DP  RH WIND       PRES   REMARKS
SPRINGFIELD    SUNNY     70  38  31 NW12      30.15F
JOPLIN         SUNNY     70  42  36 N7        30.18S
BRANSON        MOSUNNY   72  43  35 N5        30.15F

$$
MOZ032>034-039>042-045>050-055>058-069>072-270000-
...CENTRAL MISSOURI...

CITY           SKY/WX    TMP DP  RH WIND       PRES   REMARKS
COLUMBIA       SUNNY     71  37  28 NW10      30.12F
JEFFERSON CITY SUNNY     73  38  27 W9        30.11F
ROLLA          SUNNY     68  40  35 NW6       30.12F
SEDALIA        SUNNY     73  40  30 NW7       30.15F
WHITEMAN AFB   SUNNY     71  39  31 W8        30.13F
OSAGE BEACH    SUNNY     70  43  37 W5        30.15F

$$
MOZ051-052-059>065-270000-
...EAST CENTRAL MISSOURI...

CITY           SKY/WX    TMP DP  RH WIND       PRES   REMARKS
ST LOUIS INTL  CLEAR     73  35  25 W12       30.09F
SPIRIT OF STL  CLEAR     71  41  33 W8        30.09F
ST CHARLES     CLEAR     73  38  27 W13       30.08F

$$
MOZ072>076-082>087-097>100-106>115-270000-
...SOUTH CENTRAL AND SOUTHEAST MISSOURI...

CITY           SKY/WX    TMP DP  RH WIND       PRES   REMARKS
CAPE GIRARDEAU NOT AVBL
FARMINGTON     CLEAR     69  45  41 NW6       30.12S
POPLAR BLUFF   CLEAR     73  54  51 N6        30.08S
WEST PLAINS    SUNNY     70  45  40 N9        30.14F

$$



USA.gov is the U.S. government's official web portal to all federal, state and local government web resources and services.